TJS-10

Last updated on Sun Oct 06 2024 00:02:42 GMT+0000 (Coordinated Universal Time)

1 58204U 23169A 24279.82850698 .00000014 00000+0 00000+0 0 9993 2 58204 0.9346 87.6612 0004701 139.7521 258.8154 1.00275291 3466
UTC large
Height (km)
Speed (km/s)
/
Latitude / Longitude
Inclination (degrees)
Orbital Period (minutes)
Azimuth
Elevation
Range (km)
Doppler Factor

Next 0 passes for location: London (51.5072 / 0.1276)

Sorry there are no passes over London.